�N����,����,�~����,�C��,���x,�C��,����,���ϕ���,�ő�u�ԕ���,�ő厞����,���˗�,�I�_���x,�n�����x,�ő啗���N��,DTYPE
"17/10/05","00:10",0.0,11.0,88.8,1017.8,309.6,1.1,1.9,329.6,0.00,9.3,18.1,"00:05:34",1
"17/10/05","00:20",0.0,11.1,88.7,1018.7,302.4,1.2,1.6,322.2,0.00,9.3,18.2,"00:10:46",1
"17/10/05","00:30",0.0,11.0,88.8,1018.2,305.6,0.6,1.4,338.8,0.00,9.3,18.1,"00:25:36",1
"17/10/05","00:40",0.0,11.0,89.3,1018.5,319.3,1.1,3.2,318.6,0.00,9.3,17.9,"00:39:18",1
"17/10/05","00:50",0.0,11.2,89.1,1018.0,306.0,1.5,2.6,323.8,0.00,9.5,18.0,"00:41:46",1
"17/10/05","01:00",0.0,11.4,88.8,1018.0,300.9,1.5,2.4,337.6,0.00,9.7,17.7,"00:53:22",1
"17/10/05","01:10",0.0,11.5,88.3,1018.2,324.9,2.2,3.5,335.2,0.00,9.7,18.0,"01:04:48",1
"17/10/05","01:20",0.0,11.9,87.3,1018.0,321.4,2.2,3.2,326.1,0.00,9.9,17.7,"01:12:10",1
"17/10/05","01:30",0.0,11.9,87.0,1018.5,309.7,1.3,2.1,326.8,0.00,9.8,17.8,"01:21:30",1
"17/10/05","01:40",0.0,11.8,87.2,1018.2,312.7,1.5,2.9,318.5,0.00,9.8,17.8,"01:36:36",1
"17/10/05","01:50",0.0,11.7,87.1,1018.5,306.4,1.2,1.7,314.1,0.00,9.7,17.9,"01:41:42",1
"17/10/05","02:00",0.0,11.7,87.6,1018.5,296.3,1.2,1.7,318.7,0.00,9.8,17.8,"01:58:28",1
"17/10/05","02:10",0.0,11.6,88.1,1018.5,294.5,0.8,1.2,300.0,0.00,9.7,17.7,"02:09:34",1
"17/10/05","02:20",0.0,11.6,88.8,1018.7,307.6,1.0,1.2,293.8,0.00,9.9,17.9,"02:10:50",1
"17/10/05","02:30",0.0,11.4,89.2,1018.7,289.5,1.0,2.2,309.7,0.00,9.7,17.8,"02:29:48",1
"17/10/05","02:40",0.0,11.6,89.6,1018.2,319.5,1.6,2.5,320.4,0.00,10.0,17.8,"02:30:46",1
"17/10/05","02:50",0.0,11.6,89.8,1018.7,309.0,1.0,1.3,317.6,0.00,10.0,17.7,"02:42:02",1
"17/10/05","03:00",0.0,11.6,89.7,1018.5,302.4,1.2,1.7,316.2,0.00,10.0,17.7,"02:54:20",1
"17/10/05","03:10",0.0,11.8,89.3,1018.0,310.1,1.6,2.2,315.1,0.00,10.1,17.9,"03:05:34",1
"17/10/05","03:20",0.0,11.9,88.5,1018.5,308.2,1.7,2.2,316.5,0.00,10.1,17.8,"03:11:10",1
"17/10/05","03:30",0.0,12.1,88.1,1018.5,334.0,1.6,3.1,325.7,0.00,10.2,17.9,"03:20:28",1
"17/10/05","03:40",0.0,12.0,88.5,1018.2,313.1,1.3,1.7,308.7,0.00,10.2,17.7,"03:31:30",1
"17/10/05","03:50",0.0,11.8,89.3,1018.2,297.0,1.1,1.4,306.7,0.00,10.1,17.7,"03:48:16",1
"17/10/05","04:00",0.0,11.6,90.2,1018.5,303.5,0.8,1.0,301.6,0.00,10.1,17.9,"03:53:30",1
"17/10/05","04:10",0.0,11.4,91.1,1018.5,300.9,1.2,1.7,320.8,0.00,10.0,17.9,"04:02:00",1
"17/10/05","04:20",0.0,11.3,91.9,1018.2,321.1,1.1,1.6,333.4,0.00,10.1,17.7,"04:19:40",1
"17/10/05","04:30",0.0,11.3,92.4,1018.2,310.7,1.3,2.0,328.6,0.00,10.2,17.7,"04:25:12",1
"17/10/05","04:40",0.0,11.2,92.7,1018.2,304.4,0.6,1.2,296.5,0.00,10.1,17.7,"04:39:12",1
"17/10/05","04:50",0.0,11.0,92.9,1018.2,305.3,1.6,1.9,321.9,0.00,9.9,17.7,"04:46:28",1
"17/10/05","05:00",0.0,10.9,93.2,1019.0,305.5,1.3,1.8,296.6,0.00,9.9,17.5,"04:50:20",1
"17/10/05","05:10",0.0,10.7,93.3,1018.2,309.2,1.3,1.7,319.2,0.00,9.7,17.3,"05:05:34",1
"17/10/05","05:20",0.0,10.6,93.5,1018.2,308.9,0.7,1.2,309.8,0.00,9.6,17.5,"05:11:00",1
"17/10/05","05:30",0.0,10.5,93.6,1018.5,311.5,1.5,2.0,334.9,0.00,9.6,17.5,"05:24:10",1
"17/10/05","05:40",0.0,10.3,93.9,1018.7,299.0,1.1,1.6,305.0,0.00,9.4,17.4,"05:33:56",1
"17/10/05","05:50",0.0,10.4,94.3,1018.5,272.8,1.1,1.6,279.1,0.00,9.6,17.3,"05:48:08",1
"17/10/05","06:00",0.0,10.5,94.0,1018.5,315.3,1.5,2.0,295.9,0.00,9.6,17.4,"05:54:02",1
"17/10/05","06:10",0.0,10.3,93.7,1018.7,286.6,0.8,1.3,315.8,0.00,9.4,17.4,"06:00:46",1
"17/10/05","06:20",0.0,10.1,94.2,1018.7,305.3,1.2,1.7,315.1,0.00,9.3,17.4,"06:19:04",1
"17/10/05","06:30",0.0,10.2,94.9,1018.7,296.1,1.3,2.0,316.3,0.00,9.5,17.2,"06:24:52",1
"17/10/05","06:40",0.0,10.5,95.1,1019.2,305.0,1.1,1.6,316.7,0.00,9.8,17.3,"06:38:04",1
"17/10/05","06:50",0.0,10.9,95.5,1018.7,299.4,1.2,2.2,311.8,0.01,10.2,17.2,"06:49:08",1
"17/10/05","07:00",0.0,11.6,94.9,1019.0,296.2,1.2,2.4,320.8,0.02,10.9,17.2,"06:51:58",1
"17/10/05","07:10",0.0,12.2,94.1,1019.0,283.3,0.8,1.3,308.2,0.03,11.3,17.3,"07:01:34",1
"17/10/05","07:20",0.0,12.7,93.2,1019.4,293.1,1.0,1.7,312.6,0.04,11.7,17.4,"07:17:36",1
"17/10/05","07:30",0.0,13.2,92.2,1019.2,288.6,1.0,1.7,292.4,0.05,12.0,17.4,"07:20:32",1
"17/10/05","07:40",0.0,13.6,90.4,1019.4,302.1,1.0,1.8,314.7,0.07,12.1,17.5,"07:36:00",1
"17/10/05","07:50",0.0,14.1,87.6,1020.1,296.1,1.1,2.5,320.4,0.06,12.1,17.4,"07:47:44",1
"17/10/05","08:00",0.0,14.6,85.5,1019.9,307.7,1.1,1.8,314.0,0.08,12.2,17.5,"07:56:24",1
"17/10/05","08:10",0.0,15.1,81.8,1020.1,315.2,1.3,2.4,325.6,0.11,12.1,17.6,"08:03:04",1
"17/10/05","08:20",0.0,15.8,78.5,1020.4,301.7,1.0,1.9,316.6,0.13,12.1,17.5,"08:18:08",1
"17/10/05","08:30",0.0,16.5,77.9,1020.4,316.8,0.7,1.6,301.1,0.13,12.7,17.9,"08:20:24",1
"17/10/05","08:40",0.0,16.6,75.4,1020.1,309.5,0.6,1.7,341.2,0.12,12.3,17.9,"08:35:28",1
"17/10/05","08:50",0.0,16.6,77.7,1020.6,315.4,0.7,1.9,336.8,0.11,12.7,18.0,"08:45:12",1
"17/10/05","09:00",0.0,17.0,75.6,1020.1,317.9,0.8,1.8,326.1,0.16,12.7,18.0,"08:50:16",1
"17/10/05","09:10",0.0,17.5,71.5,1020.4,309.7,1.0,1.9,333.1,0.20,12.3,17.9,"09:05:20",1
"17/10/05","09:20",0.0,17.9,70.3,1019.9,273.9,0.8,1.7,236.6,0.21,12.5,18.1,"09:10:08",1
"17/10/05","09:30",0.0,18.2,66.9,1020.4,241.6,1.1,2.2,221.5,0.25,12.0,18.4,"09:27:36",1
"17/10/05","09:40",0.0,19.2,60.2,1019.7,240.3,0.3,1.3,231.5,0.26,11.3,18.4,"09:30:24",1
"17/10/05","09:50",0.0,19.1,61.0,1019.9,224.9,0.8,2.1,203.6,0.24,11.5,18.6,"09:48:08",1
"17/10/05","10:00",0.0,19.6,57.2,1019.7,217.5,0.5,1.2,197.3,0.26,11.0,18.5,"09:51:04",1
"17/10/05","10:10",0.0,19.8,56.6,1019.2,176.4,0.8,1.8,208.7,0.31,11.0,18.7,"10:05:48",1
"17/10/05","10:20",0.0,20.6,57.8,1019.4,197.3,0.6,2.2,201.9,0.38,12.0,18.9,"10:14:40",1
"17/10/05","10:30",0.0,20.7,58.2,1019.2,191.7,1.1,2.7,211.8,0.45,12.2,19.0,"10:28:24",1
"17/10/05","10:40",0.0,21.0,51.5,1019.0,120.7,0.6,2.2,136.5,0.36,10.7,19.2,"10:34:24",1
"17/10/05","10:50",0.0,20.9,53.3,1018.7,196.6,0.8,2.8,205.4,0.33,11.1,19.3,"10:47:20",1
"17/10/05","11:00",0.0,21.1,52.2,1018.2,238.1,0.7,2.1,134.6,0.33,11.0,19.6,"10:50:32",1
"17/10/05","11:10",0.0,21.1,50.6,1018.0,254.9,0.8,1.9,233.3,0.33,10.5,19.6,"11:00:24",1
"17/10/05","11:20",0.0,21.5,50.3,1018.0,304.2,0.7,2.6,343.3,0.30,10.8,19.8,"11:14:08",1
"17/10/05","11:30",0.0,21.3,53.8,1017.8,191.1,1.0,2.5,203.6,0.30,11.6,19.8,"11:28:24",1
"17/10/05","11:40",0.0,21.4,52.8,1018.0,253.2,1.3,2.6,326.0,0.33,11.4,19.8,"11:35:28",1
"17/10/05","11:50",0.0,22.0,50.4,1017.8,261.5,1.2,2.5,232.3,0.47,11.3,20.1,"11:48:48",1
"17/10/05","12:00",0.0,23.3,48.6,1017.3,170.0,0.8,2.2,248.4,0.51,11.9,20.2,"11:50:16",1
"17/10/05","12:10",0.0,23.1,47.6,1016.8,139.8,1.0,3.1,137.9,0.55,11.4,20.4,"12:06:56",1
"17/10/05","12:20",0.0,23.2,51.2,1016.6,87.1,0.6,2.1,121.9,0.43,12.6,20.6,"12:14:40",1
"17/10/05","12:30",0.0,22.4,48.7,1016.1,210.4,1.5,3.5,236.4,0.36,11.1,20.6,"12:28:16",1
"17/10/05","12:40",0.0,22.9,48.3,1016.1,347.9,1.1,2.6,322.6,0.36,11.5,20.7,"12:39:20",1
"17/10/05","12:50",0.0,23.3,46.3,1015.9,274.1,1.0,2.1,336.6,0.39,11.2,21.0,"12:43:04",1
"17/10/05","13:00",0.0,23.8,44.4,1016.1,95.4,1.1,2.4,66.2,0.42,11.0,21.0,"12:54:32",1
"17/10/05","13:10",0.0,23.7,42.7,1015.9,108.3,0.8,2.4,83.4,0.42,10.3,21.1,"13:07:20",1
"17/10/05","13:20",0.0,23.7,46.0,1015.9,350.1,0.8,2.6,335.4,0.38,11.4,21.3,"13:14:08",1
"17/10/05","13:30",0.0,23.5,42.9,1015.2,161.3,1.2,3.5,133.1,0.37,10.2,21.3,"13:27:28",1
"17/10/05","13:40",0.0,23.8,41.6,1016.1,104.4,1.2,2.9,127.2,0.34,10.0,21.6,"13:33:28",1
"17/10/05","13:50",0.0,23.9,41.9,1015.9,137.7,1.0,2.7,83.7,0.33,10.2,21.4,"13:48:08",1
"17/10/05","14:00",0.0,23.5,45.6,1015.9,153.6,1.2,2.9,215.1,0.35,11.1,21.5,"13:57:28",1
"17/10/05","14:10",0.0,23.6,45.2,1015.6,204.0,1.2,3.1,228.1,0.28,11.1,21.5,"14:03:36",1
"17/10/05","14:20",0.0,23.2,47.5,1015.4,178.5,1.2,3.4,193.9,0.28,11.5,21.5,"14:11:20",1
"17/10/05","14:30",0.0,23.0,49.5,1015.9,132.0,1.1,2.6,153.5,0.26,11.9,21.4,"14:26:16",1
"17/10/05","14:40",0.0,23.0,48.1,1015.9,156.8,1.3,3.3,132.4,0.23,11.5,21.6,"14:34:16",1
"17/10/05","14:50",0.0,23.0,48.5,1015.9,159.7,1.5,2.9,203.2,0.23,11.6,21.6,"14:44:16",1
"17/10/05","15:00",0.0,22.9,50.7,1016.1,140.2,1.1,2.5,133.9,0.23,12.2,21.7,"14:53:52",1
"17/10/05","15:10",0.0,22.8,51.4,1015.9,120.2,1.1,2.4,124.9,0.21,12.3,21.8,"15:04:24",1
"17/10/05","15:20",0.0,23.0,48.8,1016.1,122.9,1.2,2.8,119.3,0.23,11.7,21.7,"15:15:36",1
"17/10/05","15:30",0.0,22.8,50.3,1016.1,79.7,0.8,2.4,39.2,0.14,12.0,21.4,"15:24:16",1
"17/10/05","15:40",0.0,22.0,52.3,1016.1,104.0,1.0,2.7,97.5,0.08,11.8,21.7,"15:34:32",1
"17/10/05","15:50",0.0,22.2,52.7,1016.1,92.8,0.8,2.2,103.0,0.09,12.1,21.6,"15:43:28",1
"17/10/05","16:00",0.0,22.7,53.0,1015.9,128.5,1.1,2.5,167.5,0.15,12.7,21.4,"15:58:00",1
"17/10/05","16:10",0.0,22.7,52.1,1016.1,88.7,0.8,2.5,171.4,0.11,12.4,21.3,"16:00:24",1
"17/10/05","16:20",0.0,21.9,53.6,1016.4,157.3,1.1,2.9,141.1,0.05,12.1,21.4,"16:14:32",1
"17/10/05","16:30",0.0,21.5,55.4,1016.8,85.8,1.0,3.3,105.3,0.02,12.2,21.2,"16:25:12",1
"17/10/05","16:40",0.0,21.1,57.9,1016.8,110.6,1.0,2.6,50.1,0.02,12.5,21.2,"16:32:16",1
"17/10/05","16:50",0.0,21.0,58.1,1017.1,62.6,0.7,2.4,88.7,0.02,12.5,21.1,"16:47:12",1
"17/10/05","17:00",0.0,21.0,59.1,1017.3,124.5,0.8,2.2,103.1,0.02,12.8,20.8,"16:55:04",1
"17/10/05","17:10",0.0,20.5,60.8,1017.5,159.8,1.1,3.3,140.0,0.00,12.7,20.9,"17:02:32",1
"17/10/05","17:20",0.0,20.4,61.1,1017.5,86.9,1.1,2.4,109.4,0.00,12.7,21.0,"17:14:00",1
"17/10/05","17:30",0.0,20.1,62.3,1017.5,102.6,0.8,2.5,84.9,0.00,12.7,20.7,"17:24:16",1
"17/10/05","17:40",0.0,20.0,63.6,1017.5,78.6,1.0,2.6,98.0,0.00,12.9,20.7,"17:30:08",1
"17/10/05","17:50",0.0,19.9,65.2,1017.3,82.6,0.8,1.9,111.2,0.00,13.2,20.7,"17:40:08",1
"17/10/05","18:00",0.0,19.7,66.2,1017.8,61.3,0.8,2.0,104.1,0.00,13.3,20.6,"17:56:24",1
"17/10/05","18:10",0.0,19.6,67.1,1018.0,59.6,0.7,1.7,85.5,0.00,13.4,20.5,"18:08:08",1
"17/10/05","18:20",0.0,19.5,68.1,1018.5,40.2,0.6,1.8,18.9,0.00,13.5,20.4,"18:11:36",1
"17/10/05","18:30",0.0,19.4,68.8,1018.5,60.8,0.8,1.8,97.0,0.00,13.6,20.3,"18:23:44",1
"17/10/05","18:40",0.0,19.4,69.1,1018.7,64.2,0.8,2.0,97.3,0.00,13.6,20.4,"18:32:24",1
"17/10/05","18:50",0.0,19.3,69.5,1018.7,355.2,0.6,1.7,66.8,0.00,13.6,20.4,"18:40:32",1
"17/10/05","19:00",0.0,19.3,70.0,1019.0,63.0,0.7,2.8,146.9,0.00,13.7,20.2,"18:52:32",1
"17/10/05","19:10",0.0,19.3,70.3,1019.0,31.8,0.8,2.0,94.3,0.00,13.8,20.4,"19:04:16",1
"17/10/05","19:20",0.0,19.2,70.0,1019.2,359.6,1.0,3.1,89.8,0.00,13.6,20.1,"19:17:12",1
"17/10/05","19:30",0.0,19.0,70.5,1019.2,13.2,0.7,1.7,343.0,0.00,13.6,20.2,"19:28:00",1
"17/10/05","19:40",0.0,18.9,71.3,1019.0,338.8,0.6,1.6,320.1,0.00,13.6,20.1,"19:33:44",1
"17/10/05","19:50",0.0,18.8,72.1,1019.0,351.8,0.7,1.7,346.5,0.00,13.7,20.2,"19:40:56",1
"17/10/05","20:00",0.0,18.9,71.9,1019.2,8.9,0.7,1.7,0.1,0.00,13.8,20.1,"19:59:44",1
"17/10/05","20:10",0.0,18.8,71.7,1019.7,356.1,1.0,2.5,357.2,0.00,13.6,20.2,"20:09:36",1
"17/10/05","20:20",0.0,18.8,71.7,1019.7,356.6,1.1,2.9,353.1,0.00,13.6,20.0,"20:18:56",1
"17/10/05","20:30",0.0,18.7,72.2,1019.9,7.2,0.8,2.0,346.3,0.00,13.6,19.9,"20:20:32",1
"17/10/05","20:40",0.0,18.7,72.6,1019.9,11.3,0.7,2.0,47.6,0.00,13.7,20.1,"20:33:36",1
"17/10/05","20:50",0.0,18.8,73.0,1019.7,355.6,0.7,2.1,12.0,0.00,13.9,19.9,"20:47:52",1
"17/10/05","21:00",0.0,18.7,73.2,1020.1,348.9,0.7,2.0,335.0,0.00,13.8,19.8,"20:58:24",1
"17/10/05","21:10",0.0,18.7,73.3,1019.9,2.2,0.8,2.2,348.9,0.00,13.9,20.0,"21:08:56",1
"17/10/05","21:20",0.0,18.8,73.4,1019.9,1.5,0.8,2.2,347.7,0.00,14.0,19.8,"21:19:44",1
"17/10/05","21:30",0.0,18.8,73.5,1019.9,347.0,1.0,2.6,82.0,0.00,14.0,19.8,"21:29:52",1
"17/10/05","21:40",0.0,18.7,73.6,1019.7,355.6,0.8,1.7,346.9,0.00,13.9,19.7,"21:31:28",1
"17/10/05","21:50",0.0,18.8,73.6,1019.9,7.3,0.8,1.9,1.6,0.00,14.0,19.8,"21:42:56",1
"17/10/05","22:00",0.0,18.7,73.7,1019.7,353.1,0.8,2.6,0.2,0.00,14.0,19.8,"21:50:48",1
"17/10/05","22:10",0.0,18.7,73.9,1020.1,339.0,0.7,2.2,355.8,0.00,14.0,19.6,"22:07:44",1
"17/10/05","22:20",0.0,18.6,74.3,1019.7,335.8,0.7,2.1,334.8,0.00,14.0,19.6,"22:10:24",1
"17/10/05","22:30",0.0,18.6,74.4,1019.9,358.9,0.8,2.5,350.1,0.00,14.0,19.8,"22:29:28",1
"17/10/05","22:40",0.0,18.7,74.6,1019.9,0.5,0.6,1.3,10.1,0.00,14.1,19.5,"22:38:16",1
"17/10/05","22:50",0.0,18.6,74.9,1019.9,343.5,0.7,1.8,346.7,0.00,14.1,19.8,"22:45:12",1
"17/10/05","23:00",0.0,18.5,74.9,1019.4,357.5,0.8,1.9,39.3,0.00,14.0,19.6,"22:56:40",1
"17/10/05","23:10",0.0,18.4,75.0,1019.7,329.6,0.5,1.2,327.0,0.00,13.9,19.7,"23:03:28",1
"17/10/05","23:20",0.0,18.4,75.3,1019.9,337.0,0.7,1.8,345.5,0.00,14.0,19.5,"23:18:32",1
"17/10/05","23:30",0.0,18.5,75.7,1019.4,355.0,0.6,3.4,345.2,0.00,14.2,19.6,"23:22:40",1
"17/10/05","23:40",0.0,18.4,76.1,1019.7,343.5,0.6,1.3,324.5,0.00,14.2,19.6,"23:32:08",1
"17/10/05","23:50",0.0,18.4,76.4,1019.7,332.9,0.7,1.3,309.9,0.00,14.2,19.7,"23:40:56",1
"17/10/05","24:00",0.0,18.3,76.4,1019.9,347.9,0.6,2.0,351.3,0.00,14.1,19.6,"23:51:12",1
